Regional Weather Roundup
Issued by NWS

Home | Current Version | Previous Version | Graphics & Text | Print | Product List | Glossary On
Versions: 1 2 3 4 5 6 7 8 9 10 11 12 13 14 15 16 17 18 19 20 21 22 23 24 25 26 27 28 29 30 31 32 33 34 35 36 37 38 39 40 41 42 43 44 45 46 47 48 49 50
393
ASUS44 KLIX 231901
RWRLA
LOUISIANA WEATHER ROUNDUP
NATIONAL WEATHER SERVICE NEW ORLEANS LA
200 PM CDT TUE SEP 23 2014

NOTE: "FAIR" INDICATES FEW OR NO CLOUDS BELOW 12,000 FEET WITH NO
      SIGNIFICANT WEATHER AND/OR OBSTRUCTIONS TO VISIBILITY.
      SKY/WX - SKY CONDITION AND SIGNIFICANT WEATHER.
      TMP - AIR TEMPERATURE.    DP   - DEWPOINT TEMPERATURE.
      RH  - RELATIVE HUMIDITY.  PRES - PRESSURE.
      HX  - HEAT INDEX.         WCI  - WIND CHILL INDEX.

*  THESE STATIONS ARE NOT NWS OR FAA STATIONS AND ARE NOT UNDER
   NWS QUALITY CONTROL.

LAZ040-048-061>063-065-066-069-232000-
SOUTHEAST LOUISIANA

CITY           SKY/WX    TMP DP  RH WIND       PRES   REMARKS
N.O. AUDUBON   NOT AVBL
N.O. INTL ARPT MOSUNNY   82  54  37 N12       30.08F
N.O. LAKEFRONT SUNNY     83  56  39 N10       30.08F
N.O. DOWNTOWN* FAIR      82  54  36 N10       30.08F
SLIDELL        SUNNY     84  54  35 N12       30.07F
BATON ROUGE    SUNNY     83  55  38 N6        30.10F
BOOTHVILLE     SUNNY     82  63  52 NE10G18   30.06F
BELLE CHASSE   MOSUNNY   84  49  29 NE9G18    30.06F
BOGALUSA*        N/A     83  51  32 CALM      30.10F
GALLIANO*      NOT AVBL
NEW ROADS*     FAIR      81  56  41 N9        30.10F
GONZALES*      FAIR      82  57  41 NE8       30.08F
HAMMOND*       NOT AVBL
HOUMA*         SUNNY     84  -6   3 NE12      30.06F
PORT FOURCHON* CLEAR     81  63  54 NE15G21   30.08F

$$

LAZ041-044-053-054-232000-
SOUTHWEST LOUISIANA

CITY           SKY/WX    TMP DP  RH WIND       PRES   REMARKS
LAKE CHARLES   MOSUNNY   83  55  38 NE10      30.09F
LAFAYETTE      SUNNY     83  54  36 NE8       30.09F
PATTERSON      SUNNY     84  59  42 NE10G17   30.10F
SALT POINT       N/A     86  58  38 VRB5      30.06F
NEW IBERIA     SUNNY     85  55  35 NE14      30.09F
CHENAULT AIRPK MOSUNNY   81  55  41 NE14      30.11F

$$

LAZ027-028-232000-
CENTRAL LOUISIANA

CITY           SKY/WX    TMP DP  RH WIND       PRES   REMARKS
FORT POLK      NOT AVBL
ALEXANDRIA INT SUNNY     82  53  36 N13       30.11F
ALEXANDRIA     SUNNY     82  55  39 NE7       30.13F

$$

LAZ001-002-232000-
NORTHWEST LOUISIANA

CITY           SKY/WX    TMP DP  RH WIND       PRES   REMARKS
SHREVEPORT     MOSUNNY   82  50  32 N7        30.15F
BARKSDALE AFB  MOSUNNY   82  47  29 NE8       30.16F
DTN SHREVEPORT MOSUNNY   79  49  34 E6        30.15F

$$

LAZ014-016-232000-
NORTHEAST LOUISIANA

CITY           SKY/WX    TMP DP  RH WIND       PRES   REMARKS
MONROE         SUNNY     81  51  35 NE9       30.16F
TALLULAH       SUNNY     80  51  36 NE8       30.14F

$$




USA.gov is the U.S. government's official web portal to all federal, state and local government web resources and services.